sat.trackr.live / text

‹ back to catalog

UNKNOWN

NORAD 81366

UNKNOWN UNKNOWN UNKNOWN

§ Identity

Operator
Country
Launch date
Launch site
Launch vehicle
Mass (kg)
RCS (m²)

External: N2YO · Heavens-Above

§ Orbital elements

Epoch: 2026-09-12T02:21:54.258624Z

Period
107.00 min
Inclination
65.8817°
Eccentricity
0.0723655
Mean motion
13.45748160 rev/d
Perigee alt
547.7 km
Apogee alt
1,628.2 km
Semi-major
7,466.1 km
B*
1.6238e-4
RAAN
144.6471°
Arg perigee
309.6287°
Mean anomaly
44.2995°
Rev number
10,273

§ Raw data

UNKNOWN1 81366U          26255.09854466  .00000400  00000+0  16238-3 0  99922 81366  65.8817 144.6471 0723655 309.6287  44.2995 13.45748160102736

JSON: /api/v1/satellites/81366 · /tle

For live sub-satellite position, see the globe view (requires WebGL).

§ Visibility from observer

Set your observer location to see the next 7 days of passes ≥ 10°. The values pass through the URL so the page stays shareable.

No JS? Fill the form by hand. The geolocation button needs JavaScript.